軌道要素
Epoch 2019 Aug. 25.0 TT = JDT 2458720.5
T 2019 Aug. 11.29580 TT Williams
q 2.8902281 (2000.0) P Q
n 0.03190495 Peri. 49.92276 +0.55280287 +0.81637590
a 9.8453398 Node 254.40910 -0.80759909 +0.47541317
e 0.7064369 Incl. 9.99347 -0.20540860 +0.32789129
P 30.9
From 88 observations 2019 May 30-Oct. 31, mean residual 0".3.
|